Location: Nairn
(57.5833°N, 3.8667°W)
Time: 14:29:17
(UTC+00:00)

Vanguard 1 - Pass Details

Date: 03 December 2020
Orbit: 649 x 3834 km, 34.3° (Epoch: 14 January)

Event Time Altitude Azimuth Distance (km) Brightness Sun altitude
Rises 07:38:45 0° 236° (SW) 3,917 12.9 -7.0°
Reaches altitude 10° 07:42:54 10° 211° (SSW) 3,441 12.9 -6.5°
Maximum altitude 07:46:54 14° 183° (S) 3,623 13.4 -6.1°
Drops below altitude 10° 07:51:53 10° 158° (SSE) 4,511 14.4 -5.5°
Sets 07:59:15 0° 138° (SE) 6,315 16.3 -4.7°
